Wetterstation Vettwei-Soller: Standort 50 43' 54" Nord - 6 33' 24" Ost
Wetterdaten: aktuell Sonntag, 03.03.2024 09:45
Datum Zeit Temp. A. Temp. A. min Temp. A. max Feuchte A. Luftdruck Regen Wind Richtung Richtung Sonnenschein Zeit Regen ET UV Solar Taupunkt Windchill Windben
03.03.2024 09:45 8,9 C 8,4 C 8,9 C 84 % 1001,6 hPa 0,0 l/m 1,6 km/h (1 Bft) O-SO 118 0 min 0 min 0,000 mm 0,0 UV-I 132 W/m 6,3 C 8,9 C 6,4 km/h (2 Bft)
03.03.2024 09:30 8,4 C 8,2 C 8,4 C 84 % 1001,4 hPa 0,0 l/m 1,6 km/h (1 Bft) O-SO 118 0 min 0 min 0,000 mm 0,0 UV-I 123 W/m 5,9 C 8,4 C 4,8 km/h (1 Bft)
03.03.2024 09:15 8,2 C 8,0 C 8,2 C 85 % 1001,2 hPa 0,0 l/m 0,4 km/h (0 Bft) O-SO 117 0 min 0 min 0,000 mm 0,0 UV-I 97 W/m 5,8 C 8,2 C 3,2 km/h (1 Bft)
03.03.2024 09:00 8,0 C 7,8 C 8,1 C 86 % 1001,2 hPa 0,0 l/m 0,5 km/h (0 Bft) O-SO 118 0 min 0 min 0,026 mm 0,0 UV-I 63 W/m 5,8 C 8,0 C 3,2 km/h (1 Bft)
03.03.2024 08:45 7,9 C 7,7 C 7,9 C 86 % 1001,2 hPa 0,0 l/m 0,5 km/h (0 Bft) O-SO 117 0 min 0 min 0,000 mm 0,0 UV-I 65 W/m 5,7 C 7,9 C 4,8 km/h (1 Bft)
03.03.2024 08:30 7,7 C 7,6 C 7,7 C 87 % 1001,0 hPa 0,0 l/m 0,0 km/h (0 Bft) O-SO 117 0 min 0 min 0,000 mm 0,0 UV-I 58 W/m 5,7 C 7,7 C 0,0 km/h (0 Bft)
03.03.2024 08:15 7,6 C 7,3 C 7,6 C 87 % 1000,8 hPa 0,0 l/m 0,8 km/h (0 Bft) O-SO 117 0 min 0 min 0,000 mm 0,0 UV-I 51 W/m 5,6 C 7,6 C 4,8 km/h (1 Bft)
03.03.2024 08:00 7,3 C 7,1 C 7,3 C 87 % 1001,0 hPa 0,0 l/m 3,2 km/h (1 Bft) O-SO 117 0 min 0 min 0,000 mm 0,0 UV-I 56 W/m 5,3 C 7,3 C 9,7 km/h (2 Bft)
03.03.2024 07:45 7,1 C 6,9 C 7,2 C 87 % 1000,9 hPa 0,0 l/m 4,9 km/h (1 Bft) O-SO 119 0 min 0 min 0,000 mm 0,0 UV-I 18 W/m 5,1 C 6,5 C 11,3 km/h (2 Bft)
03.03.2024 07:30 7,2 C 7,2 C 7,4 C 85 % 1000,5 hPa 0,0 l/m 1,4 km/h (1 Bft) SO 132 0 min 0 min 0,000 mm 0,0 UV-I 7 W/m 4,9 C 7,2 C 6,4 km/h (2 Bft)
03.03.2024 07:15 7,3 C 7,2 C 7,4 C 86 % 1000,2 hPa 0,0 l/m 1,1 km/h (1 Bft) SO 133 0 min 0 min 0,000 mm 0,0 UV-I 0 W/m 5,1 C 7,3 C 4,8 km/h (1 Bft)
03.03.2024 07:00 7,2 C 7,2 C 7,2 C 86 % 1000,6 hPa 0,0 l/m 1,2 km/h (1 Bft) SO 133 0 min 0 min 0,000 mm 0,0 UV-I 0 W/m 5,0 C 7,2 C 4,8 km/h (1 Bft)
03.03.2024 06:45 7,2 C 7,1 C 7,2 C 86 % 1000,5 hPa 0,0 l/m 2,1 km/h (1 Bft) SO 133 0 min 0 min 0,000 mm 0,0 UV-I 0 W/m 5,0 C 7,2 C 4,8 km/h (1 Bft)
03.03.2024 06:30 7,2 C 7,2 C 7,3 C 86 % 1000,7 hPa 0,0 l/m 1,0 km/h (0 Bft) SO 133 0 min 0 min 0,000 mm 0,0 UV-I 0 W/m 5,0 C 7,2 C 4,8 km/h (1 Bft)
03.03.2024 06:15 7,2 C 7,1 C 7,3 C 86 % 1000,4 hPa 0,0 l/m 2,3 km/h (1 Bft) SO 133 0 min 0 min 0,000 mm 0,0 UV-I 0 W/m 5,0 C 7,2 C 6,4 km/h (2 Bft)
03.03.2024 06:00 7,3 C 7,2 C 7,4 C 85 % 1000,5 hPa 0,0 l/m 0,2 km/h (0 Bft) SO 133 0 min 0 min 0,000 mm 0,0 UV-I 0 W/m 4,9 C 7,3 C 3,2 km/h (1 Bft)
03.03.2024 05:45 7,3 C 7,2 C 7,3 C 86 % 1000,5 hPa 0,0 l/m 1,2 km/h (1 Bft) SO 133 0 min 0 min 0,000 mm 0,0 UV-I 0 W/m 5,1 C 7,3 C 4,8 km/h (1 Bft)
03.03.2024 05:30 7,3 C 7,3 C 7,4 C 85 % 1000,4 hPa 0,0 l/m 1,0 km/h (0 Bft) SO 133 0 min 0 min 0,000 mm 0,0 UV-I 0 W/m 4,9 C 7,3 C 4,8 km/h (1 Bft)
03.03.2024 05:15 7,4 C 7,4 C 7,6 C 85 % 1000,4 hPa 0,0 l/m 0,3 km/h (0 Bft) SO 133 0 min 0 min 0,000 mm 0,0 UV-I 0 W/m 5,0 C 7,4 C 3,2 km/h (1 Bft)
03.03.2024 05:00 7,6 C 7,1 C 7,6 C 84 % 1000,5 hPa 0,0 l/m 1,1 km/h (1 Bft) SO 133 0 min 0 min 0,000 mm 0,0 UV-I 0 W/m 5,1 C 7,6 C 4,8 km/h (1 Bft)
03.03.2024 04:45 7,1 C 6,7 C 7,1 C 84 % 1000,3 hPa 0,0 l/m 1,8 km/h (1 Bft) SO 133 0 min 0 min 0,000 mm 0,0 UV-I 0 W/m 4,6 C 7,1 C 6,4 km/h (2 Bft)
03.03.2024 04:30 6,7 C 6,7 C 7,0 C 84 % 1000,2 hPa 0,0 l/m 0,0 km/h (0 Bft) SO 129 0 min 0 min 0,000 mm 0,0 UV-I 0 W/m 4,2 C 6,7 C 1,6 km/h (1 Bft)
03.03.2024 04:15 6,9 C 6,9 C 7,2 C 84 % 999,9 hPa 0,0 l/m 0,2 km/h (0 Bft) SO 129 0 min 0 min 0,000 mm 0,0 UV-I 0 W/m 4,4 C 6,9 C 3,2 km/h (1 Bft)
03.03.2024 04:00 7,2 C 7,1 C 7,2 C 84 % 1000,0 hPa 0,0 l/m 1,3 km/h (1 Bft) SO 129 0 min 0 min 0,025 mm 0,0 UV-I 0 W/m 4,7 C 7,2 C 4,8 km/h (1 Bft)
03.03.2024 03:45 7,2 C 7,2 C 7,8 C 83 % 999,9 hPa 0,0 l/m 1,3 km/h (1 Bft) SO 129 0 min 0 min 0,000 mm 0,0 UV-I 0 W/m 4,5 C 7,2 C 4,8 km/h (1 Bft)
03.03.2024 03:30 7,8 C 7,8 C 8,3 C 82 % 1000,0 hPa 0,0 l/m 1,6 km/h (1 Bft) SO 129 0 min 0 min 0,000 mm 0,0 UV-I 0 W/m 4,9 C 7,8 C 8,0 km/h (2 Bft)
03.03.2024 03:15 8,3 C 8,3 C 9,0 C 81 % 999,9 hPa 0,0 l/m 1,3 km/h (1 Bft) SO 132 0 min 0 min 0,000 mm 0,0 UV-I 0 W/m 5,2 C 8,3 C 4,8 km/h (1 Bft)
03.03.2024 03:00 8,9 C 8,9 C 9,1 C 79 % 999,8 hPa 0,0 l/m 1,7 km/h (1 Bft) SO 132 0 min 0 min 0,026 mm 0,0 UV-I 0 W/m 5,5 C 8,9 C 6,4 km/h (2 Bft)
03.03.2024 02:45 9,0 C 8,1 C 9,0 C 79 % 999,9 hPa 0,0 l/m 0,8 km/h (0 Bft) SO 130 0 min 0 min 0,000 mm 0,0 UV-I 0 W/m 5,6 C 9,0 C 4,8 km/h (1 Bft)
03.03.2024 02:30 8,1 C 7,3 C 8,1 C 81 % 1000,1 hPa 0,0 l/m 1,7 km/h (1 Bft) SO 130 0 min 0 min 0,000 mm 0,0 UV-I 0 W/m 5,0 C 8,1 C 8,0 km/h (2 Bft)
03.03.2024 02:15 7,3 C 7,1 C 7,3 C 83 % 1000,2 hPa 0,0 l/m 0,6 km/h (0 Bft) SO 126 0 min 0 min 0,000 mm 0,0 UV-I 0 W/m 4,6 C 7,3 C 6,4 km/h (2 Bft)
03.03.2024 02:00 7,2 C 7,2 C 7,3 C 84 % 1000,3 hPa 0,0 l/m 0,0 km/h (0 Bft) O-SO 123 0 min 0 min 0,000 mm 0,0 UV-I 0 W/m 4,7 C 7,2 C 0,0 km/h (0 Bft)
03.03.2024 01:45 7,2 C 7,2 C 7,7 C 83 % 1000,2 hPa 0,0 l/m 0,0 km/h (0 Bft) O-SO 123 0 min 0 min 0,000 mm 0,0 UV-I 0 W/m 4,5 C 7,2 C 0,0 km/h (0 Bft)
03.03.2024 01:30 7,7 C 7,7 C 8,9 C 81 % 1000,4 hPa 0,0 l/m 0,3 km/h (0 Bft) O-SO 123 0 min 0 min 0,000 mm 0,0 UV-I 0 W/m 4,7 C 7,7 C 3,2 km/h (1 Bft)
03.03.2024 01:15 8,9 C 8,8 C 9,1 C 79 % 1000,2 hPa 0,0 l/m 0,5 km/h (0 Bft) O-SO 123 0 min 0 min 0,000 mm 0,0 UV-I 0 W/m 5,5 C 8,9 C 3,2 km/h (1 Bft)
03.03.2024 01:00 8,8 C 8,1 C 8,8 C 80 % 1000,4 hPa 0,0 l/m 0,5 km/h (0 Bft) O-SO 123 0 min 0 min 0,025 mm 0,0 UV-I 0 W/m 5,5 C 8,8 C 3,2 km/h (1 Bft)
03.03.2024 00:45 8,1 C 7,8 C 8,1 C 82 % 1000,5 hPa 0,0 l/m 2,5 km/h (1 Bft) O-SO 123 0 min 0 min 0,000 mm 0,0 UV-I 0 W/m 5,2 C 8,1 C 6,4 km/h (2 Bft)
03.03.2024 00:30 7,9 C 7,9 C 8,4 C 82 % 1000,5 hPa 0,0 l/m 3,0 km/h (1 Bft) O-SO 123 0 min 0 min 0,000 mm 0,0 UV-I 0 W/m 5,0 C 7,9 C 6,4 km/h (2 Bft)
03.03.2024 00:15 8,4 C 8,4 C 9,1 C 80 % 1000,6 hPa 0,0 l/m 3,3 km/h (1 Bft) O-SO 123 0 min 0 min 0,000 mm 0,0 UV-I 0 W/m 5,2 C 8,4 C 6,4 km/h (2 Bft)
03.03.2024 00:00 9,1 C 9,1 C 9,4 C 79 % 1000,6 hPa 0,0 l/m 4,2 km/h (1 Bft) O-SO 123 0 min 0 min 0,000 mm 0,0 UV-I 0 W/m 5,7 C 9,1 C 8,0 km/h (2 Bft)
02.03.2024 23:45 9,4 C 9,4 C 9,5 C 79 % 1000,6 hPa 0,0 l/m 6,8 km/h (2 Bft) O-SO 119 0 min 0 min 0,000 mm 0,0 UV-I 0 W/m 5,9 C 8,6 C 14,5 km/h (3 Bft)
02.03.2024 23:30 9,4 C 9,3 C 9,9 C 79 % 1000,8 hPa 0,0 l/m 5,8 km/h (2 Bft) O-SO 117 0 min 0 min 0,000 mm 0,0 UV-I 0 W/m 5,9 C 8,8 C 16,1 km/h (3 Bft)
02.03.2024 23:15 9,9 C 9,9 C 10,2 C 76 % 1001,3 hPa 0,0 l/m 2,5 km/h (1 Bft) S-SO 157 0 min 0 min 0,000 mm 0,0 UV-I 0 W/m 5,9 C 9,9 C 8,0 km/h (2 Bft)
02.03.2024 23:00 10,2 C 10,1 C 10,3 C 74 % 1001,2 hPa 0,0 l/m 1,2 km/h (1 Bft) S-SO 157 0 min 0 min 0,026 mm 0,0 UV-I 0 W/m 5,8 C 10,2 C 8,0 km/h (2 Bft)
02.03.2024 22:45 10,2 C 9,8 C 10,2 C 74 % 1001,0 hPa 0,0 l/m 0,4 km/h (0 Bft) S-SO 157 0 min 0 min 0,000 mm 0,0 UV-I 0 W/m 5,8 C 10,2 C 3,2 km/h (1 Bft)
02.03.2024 22:30 9,9 C 9,9 C 10,3 C 75 % 1000,8 hPa 0,0 l/m 2,1 km/h (1 Bft) S-SO 157 0 min 0 min 0,000 mm 0,0 UV-I 0 W/m 5,7 C 9,9 C 8,0 km/h (2 Bft)
02.03.2024 22:15 10,3 C 10,3 C 10,3 C 73 % 1000,7 hPa 0,0 l/m 2,1 km/h (1 Bft) S-SO 157 0 min 0 min 0,000 mm 0,0 UV-I 0 W/m 5,7 C 10,3 C 9,7 km/h (2 Bft)
02.03.2024 22:00 10,3 C 10,2 C 10,3 C 73 % 1000,6 hPa 0,0 l/m 1,0 km/h (0 Bft) SO 132 0 min 0 min 0,025 mm 0,0 UV-I 0 W/m 5,7 C 10,3 C 4,8 km/h (1 Bft)
02.03.2024 21:45 10,3 C 10,2 C 10,4 C 73 % 1000,7 hPa 0,0 l/m 0,7 km/h (0 Bft) SO 128 0 min 0 min 0,000 mm 0,0 UV-I 0 W/m 5,7 C 10,3 C 3,2 km/h (1 Bft)
02.03.2024 21:30 10,2 C 10,1 C 10,2 C 74 % 1000,7 hPa 0,0 l/m 1,1 km/h (1 Bft) SO 128 0 min 0 min 0,000 mm 0,0 UV-I 0 W/m 5,8 C 10,2 C 4,8 km/h (1 Bft)
02.03.2024 21:15 10,2 C 9,7 C 10,2 C 74 % 1000,8 hPa 0,0 l/m 3,3 km/h (1 Bft) SO 126 0 min 0 min 0,000 mm 0,0 UV-I 0 W/m 5,8 C 10,2 C 11,3 km/h (2 Bft)
02.03.2024 21:00 9,7 C 9,7 C 10,1 C 76 % 1000,8 hPa 0,0 l/m 3,6 km/h (1 Bft) SO 124 0 min 0 min 0,026 mm 0,0 UV-I 0 W/m 5,7 C 9,7 C 8,0 km/h (2 Bft)
02.03.2024 20:45 10,1 C 9,9 C 10,2 C 75 % 1000,9 hPa 0,0 l/m 4,6 km/h (1 Bft) SO 127 0 min 0 min 0,000 mm 0,0 UV-I 0 W/m 5,9 C 10,1 C 8,0 km/h (2 Bft)
02.03.2024 20:30 9,9 C 9,8 C 10,1 C 76 % 1000,9 hPa 0,0 l/m 3,6 km/h (1 Bft) O-SO 118 0 min 0 min 0,000 mm 0,0 UV-I 0 W/m 5,9 C 9,9 C 11,3 km/h (2 Bft)
02.03.2024 20:15 10,1 C 10,1 C 10,2 C 76 % 1001,0 hPa 0,0 l/m 5,5 km/h (1 Bft) O-SO 116 0 min 0 min 0,000 mm 0,0 UV-I 0 W/m 6,1 C 10,1 C 12,9 km/h (3 Bft)
02.03.2024 20:00 10,2 C 10,2 C 10,4 C 76 % 1001,0 hPa 0,0 l/m 5,1 km/h (1 Bft) O-SO 118 0 min 0 min 0,025 mm 0,0 UV-I 0 W/m 6,2 C 10,2 C 11,3 km/h (2 Bft)
02.03.2024 19:45 10,4 C 10,4 C 11,2 C 76 % 1001,1 hPa 0,0 l/m 5,4 km/h (1 Bft) SO 134 0 min 0 min 0,000 mm 0,0 UV-I 0 W/m 6,4 C 10,4 C 16,1 km/h (3 Bft)
02.03.2024 19:30 11,2 C 11,2 C 11,4 C 72 % 1001,2 hPa 0,0 l/m 4,8 km/h (1 Bft) O-SO 110 0 min 0 min 0,000 mm 0,0 UV-I 0 W/m 6,3 C 11,2 C 17,7 km/h (3 Bft)
02.03.2024 19:15 11,4 C 11,3 C 11,4 C 71 % 1001,5 hPa 0,0 l/m 3,3 km/h (1 Bft) O-SO 121 0 min 0 min 0,025 mm 0,0 UV-I 0 W/m 6,3 C 11,4 C 9,7 km/h (2 Bft)
02.03.2024 19:00 11,3 C 11,2 C 11,6 C 71 % 1001,3 hPa 0,0 l/m 4,3 km/h (1 Bft) O-SO 119 0 min 0 min 0,000 mm 0,0 UV-I 0 W/m 6,2 C 11,3 C 12,9 km/h (3 Bft)
02.03.2024 18:45 11,6 C 11,6 C 11,7 C 70 % 1001,1 hPa 0,0 l/m 4,6 km/h (1 Bft) O-SO 120 0 min 0 min 0,000 mm 0,0 UV-I 0 W/m 6,3 C 11,6 C 12,9 km/h (3 Bft)
02.03.2024 18:30 11,7 C 11,6 C 11,8 C 69 % 1001,0 hPa 0,0 l/m 4,3 km/h (1 Bft) O-SO 123 0 min 0 min 0,000 mm 0,0 UV-I 0 W/m 6,2 C 11,7 C 12,9 km/h (3 Bft)
02.03.2024 18:15 11,8 C 11,7 C 11,8 C 69 % 1001,0 hPa 0,0 l/m 4,3 km/h (1 Bft) SO 126 0 min 0 min 0,000 mm 0,0 UV-I 0 W/m 6,3 C 11,8 C 11,3 km/h (2 Bft)
02.03.2024 18:00 11,8 C 11,7 C 11,9 C 69 % 1000,8 hPa 0,0 l/m 4,8 km/h (1 Bft) O-SO 114 0 min 0 min 0,051 mm 0,0 UV-I 7 W/m 6,3 C 11,8 C 11,3 km/h (2 Bft)
02.03.2024 17:45 11,9 C 11,9 C 12,1 C 68 % 1000,6 hPa 0,0 l/m 6,1 km/h (2 Bft) O-SO 117 0 min 0 min 0,000 mm 0,0 UV-I 28 W/m 6,2 C 11,9 C 16,1 km/h (3 Bft)
02.03.2024 17:30 12,0 C 12,0 C 12,3 C 68 % 1000,7 hPa 0,0 l/m 6,3 km/h (2 Bft) SO 124 0 min 0 min 0,000 mm 0,0 UV-I 28 W/m 6,3 C 12,0 C 17,7 km/h (3 Bft)
02.03.2024 17:15 12,2 C 12,2 C 12,3 C 67 % 1000,6 hPa 0,0 l/m 9,1 km/h (2 Bft) SO 132 0 min 0 min 0,000 mm 0,0 UV-I 46 W/m 6,3 C 12,2 C 20,9 km/h (4 Bft)
02.03.2024 17:00 12,3 C 12,3 C 12,7 C 68 % 1000,7 hPa 0,0 l/m 9,6 km/h (2 Bft) SO 130 0 min 0 min 0,102 mm 0,0 UV-I 46 W/m 6,6 C 12,3 C 17,7 km/h (3 Bft)
02.03.2024 16:45 12,7 C 12,7 C 13,5 C 68 % 1000,7 hPa 0,0 l/m 7,9 km/h (2 Bft) O-SO 113 0 min 0 min 0,000 mm 0,0 UV-I 81 W/m 6,9 C 12,7 C 17,7 km/h (3 Bft)
02.03.2024 16:30 13,5 C 13,1 C 13,5 C 65 % 1000,7 hPa 0,0 l/m 4,7 km/h (1 Bft) O-SO 123 0 min 0 min 0,000 mm 0,0 UV-I 121 W/m 7,1 C 13,5 C 11,3 km/h (2 Bft)
02.03.2024 16:15 13,2 C 13,1 C 13,3 C 64 % 1000,9 hPa 0,0 l/m 5,2 km/h (1 Bft) O-SO 120 0 min 0 min 0,152 mm 0,0 UV-I 134 W/m 6,5 C 13,2 C 14,5 km/h (3 Bft)
02.03.2024 16:00 13,3 C 13,2 C 13,4 C 64 % 1000,9 hPa 0,0 l/m 5,3 km/h (1 Bft) O-SO 118 15 min 0 min 0,000 mm 0,0 UV-I 188 W/m 6,6 C 13,3 C 14,5 km/h (3 Bft)
02.03.2024 15:45 13,4 C 13,4 C 14,3 C 63 % 1001,0 hPa 0,0 l/m 5,5 km/h (1 Bft) SO 127 0 min 0 min 0,000 mm 0,0 UV-I 156 W/m 6,5 C 13,4 C 17,7 km/h (3 Bft)
02.03.2024 15:30 14,1 C 12,9 C 14,1 C 64 % 1001,1 hPa 0,0 l/m 5,6 km/h (1 Bft) SO 137 15 min 0 min 0,000 mm 0,7 UV-I 501 W/m 7,4 C 14,1 C 16,1 km/h (3 Bft)
02.03.2024 15:15 13,0 C 12,9 C 13,1 C 65 % 1001,2 hPa 0,0 l/m 5,6 km/h (1 Bft) O-SO 121 0 min 0 min 0,000 mm 0,6 UV-I 207 W/m 6,6 C 13,0 C 16,1 km/h (3 Bft)
02.03.2024 15:00 12,9 C 12,8 C 12,9 C 67 % 1001,3 hPa 0,0 l/m 10,0 km/h (2 Bft) O-SO 106 15 min 0 min 0,153 mm 0,7 UV-I 283 W/m 6,9 C 12,9 C 25,7 km/h (4 Bft)
02.03.2024 14:45 12,8 C 12,6 C 12,9 C 67 % 1001,5 hPa 0,0 l/m 8,1 km/h (2 Bft) O-SO 116 15 min 0 min 0,000 mm 0,7 UV-I 287 W/m 6,8 C 12,8 C 20,9 km/h (4 Bft)
02.03.2024 14:30 12,6 C 12,5 C 12,7 C 68 % 1001,7 hPa 0,0 l/m 9,2 km/h (2 Bft) O-SO 113 15 min 0 min 0,000 mm 0,8 UV-I 299 W/m 6,9 C 12,6 C 24,1 km/h (4 Bft)
02.03.2024 14:15 12,7 C 12,6 C 13,1 C 67 % 1001,7 hPa 0,0 l/m 8,0 km/h (2 Bft) SO 130 0 min 0 min 0,000 mm 0,6 UV-I 209 W/m 6,7 C 12,7 C 25,7 km/h (4 Bft)
02.03.2024 14:00 12,9 C 12,6 C 12,9 C 67 % 1002,0 hPa 0,0 l/m 6,6 km/h (2 Bft) SO 126 15 min 0 min 0,177 mm 1,0 UV-I 304 W/m 6,9 C 12,9 C 25,7 km/h (4 Bft)
02.03.2024 13:45 12,6 C 12,4 C 12,6 C 64 % 1001,9 hPa 0,0 l/m 7,1 km/h (2 Bft) SO 129 15 min 0 min 0,000 mm 0,9 UV-I 334 W/m 6,0 C 12,6 C 25,7 km/h (4 Bft)
02.03.2024 13:30 12,4 C 12,2 C 12,6 C 65 % 1002,1 hPa 0,0 l/m 5,8 km/h (2 Bft) SO 136 0 min 0 min 0,000 mm 0,6 UV-I 214 W/m 6,0 C 12,4 C 19,3 km/h (3 Bft)
02.03.2024 13:15 12,6 C 12,4 C 12,7 C 64 % 1002,0 hPa 0,0 l/m 4,9 km/h (1 Bft) SO 126 0 min 0 min 0,000 mm 0,9 UV-I 265 W/m 6,0 C 12,6 C 16,1 km/h (3 Bft)
02.03.2024 13:00 12,4 C 12,1 C 12,4 C 64 % 1002,3 hPa 0,0 l/m 5,9 km/h (2 Bft) SO 134 15 min 0 min 0,229 mm 1,0 UV-I 346 W/m 5,8 C 12,4 C 20,9 km/h (4 Bft)
02.03.2024 12:45 12,1 C 12,1 C 12,4 C 62 % 1002,7 hPa 0,0 l/m 9,1 km/h (2 Bft) S-SW 200 0 min 0 min 0,000 mm 1,0 UV-I 279 W/m 5,0 C 12,1 C 27,4 km/h (4 Bft)
02.03.2024 12:30 12,4 C 12,0 C 12,4 C 61 % 1002,8 hPa 0,0 l/m 11,2 km/h (2 Bft) S-SO 161 15 min 0 min 0,000 mm 1,3 UV-I 492 W/m 5,1 C 12,4 C 25,7 km/h (4 Bft)
02.03.2024 12:15 12,1 C 11,6 C 12,1 C 64 % 1002,8 hPa 0,0 l/m 8,7 km/h (2 Bft) S 173 15 min 0 min 0,000 mm 1,4 UV-I 506 W/m 5,5 C 12,1 C 24,1 km/h (4 Bft)
02.03.2024 12:00 11,6 C 11,6 C 11,8 C 65 % 1002,8 hPa 0,0 l/m 7,2 km/h (2 Bft) O 81 15 min 0 min 0,229 mm 1,3 UV-I 475 W/m 5,2 C 11,6 C 22,5 km/h (4 Bft)
02.03.2024 11:45 11,7 C 11,1 C 11,9 C 64 % 1003,0 hPa 0,0 l/m 7,5 km/h (2 Bft) SW 219 15 min 0 min 0,000 mm 1,3 UV-I 494 W/m 5,1 C 11,7 C 22,5 km/h (4 Bft)
02.03.2024 11:30 11,1 C 10,3 C 11,1 C 67 % 1003,1 hPa 0,0 l/m 8,2 km/h (2 Bft) S-SO 153 15 min 0 min 0,000 mm 1,1 UV-I 408 W/m 5,2 C 11,1 C 24,1 km/h (4 Bft)
02.03.2024 11:15 10,3 C 10,2 C 10,3 C 68 % 1003,2 hPa 0,0 l/m 11,9 km/h (2 Bft) S-SO 149 15 min 0 min 0,000 mm 0,9 UV-I 378 W/m 4,7 C 10,3 C 29,0 km/h (5 Bft)
02.03.2024 11:00 10,2 C 9,9 C 10,2 C 70 % 1003,3 hPa 0,0 l/m 11,5 km/h (2 Bft) S 169 0 min 0 min 0,152 mm 0,7 UV-I 195 W/m 5,0 C 10,2 C 25,7 km/h (4 Bft)
02.03.2024 10:45 10,2 C 9,7 C 10,4 C 70 % 1003,3 hPa 0,0 l/m 10,7 km/h (2 Bft) S-SO 165 0 min 0 min 0,000 mm 0,6 UV-I 183 W/m 5,0 C 10,2 C 29,0 km/h (5 Bft)
02.03.2024 10:30 9,7 C 9,2 C 9,7 C 70 % 1003,4 hPa 0,0 l/m 10,8 km/h (2 Bft) SO 138 15 min 0 min 0,000 mm 0,8 UV-I 468 W/m 4,5 C 8,1 C 22,5 km/h (4 Bft)
02.03.2024 10:15 9,2 C 8,7 C 9,2 C 72 % 1003,4 hPa 0,0 l/m 11,7 km/h (2 Bft) SO 136 15 min 0 min 0,000 mm 0,6 UV-I 250 W/m 4,4 C 7,4 C 25,7 km/h (4 Bft)
02.03.2024 10:00 8,8 C 8,3 C 8,8 C 75 % 1003,6 hPa 0,0 l/m 12,4 km/h (3 Bft) S 180 0 min 0 min 0,076 mm 0,0 UV-I 199 W/m 4,6 C 6,8 C 25,7 km/h (4 Bft)
_ Min-Zeit 04:30 04:30 04:30 12:30 03:00 - 01:45 - - - - - - - 04:30 07:45 01:45
Minimum _ 6,7 C 6,7 C 7,0 C 61 % 999,8 hPa - 0,0 km/h (0 Bft) - - - - - - - 4,2 C 6,5 C 0,0 km/h (0 Bft)
_ Max-Zeit 15:45 15:45 15:45 07:45 10:00 10:00 10:00 - - 10:15 10:00 12:00 12:15 12:15 15:30 15:30 10:45
Maximum _ 14,3 C 13,4 C 14,3 C 87 % 1003,6 hPa 0,0 l/m 12,4 km/h
S (3 Bft)
- - 15 min 0 min 0,229 mm 1,4 UV-I 506 W/m 7,4 C 14,1 C 29,0 km/h
S-SO (5 Bft)
Durchschnitt _ 9,8 C 9,6 C 9,9 C 75 % 1001,3 hPa #0,0 l/m 4,7 km/h (1 Bft) SO - #0 min. #0 min. #0,102 mm 0,0 UV-I 67 W/m 5,6 C 9,6 C 12,7 km/h (3 Bft)